Home   Weather   Cottbus   Past weeks

Flag for Germany Past Weather in Cottbus, Brandenburg, Germany — Yesterday and Last 2 Weeks

Now
50 °F

Cool.


Feels Like: 50 °F
Forecast: 54 / 77 °F
Wind: 1 mph from Southeast

Location: Holzdorf

Current Time: Sep 1, 2016 at 5:52:49 AM

Latest Report: Sep 1, 2016 at 4:20 AM


Visibility: N/A

Pressure: 30.09 "Hg

Humidity: 88%

Dew Point: 46 °F

Location of CottbusLocation

Past Weather in Cottbus — Graph

°F

Cottbus Temperature Yesterday

Maximum temperature yesterday: 79 °F (at 3:20 PM)
Minimum temperature yesterday: 43 °F (at 6:20 AM)
Average temperature yesterday: 62 °F

High & Low Weather Summary for the Past Weeks

 TemperatureHumidityPressure
High95 °F (Aug 28, 3:20 PM)100% (Aug 17, 4:20 AM)30.33 "Hg (Aug 17, 4:20 AM)
Low41 °F (Aug 18, 5:20 AM)22% (Aug 28, 4:20 PM)29.80 "Hg (Aug 18, 2:20 PM)
Average67 °F67%30.08 "Hg
* Reported Aug 17 4:20 AM — Sep 1 4:20 AM, Cottbus, Weather by CustomWeather, © 2016

Note: Actual official high and low records may vary slightly from our data, if they occured in-between our weather recording intervals... More about our weather records

Advertising

Cottbus Weather History for the Previous 24 Hours

Scroll right to see more
 ConditionsComfort  
Time TempWeatherWind HumidityBarometerVisibility
4:20 AM
Thu, Sep 1
50 °FCool.1 mph88%30.09 "HgN/A
3:20 AM52 °FCool.1 mph82%30.09 "HgN/A
2:20 AM52 °FCool.2 mph82%30.09 "HgN/A
1:20 AM52 °FCool.2 mph82%30.12 "HgN/A
12:20 AM55 °FCool.1 mph72%30.12 "HgN/A
11:20 PM
Wed, Aug 31
57 °FCool.2 mph72%30.12 "HgN/A
10:20 PM59 °FCool.2 mph63%30.09 "HgN/A
9:20 PM61 °FCool.3 mph63%30.12 "HgN/A
8:20 PM66 °FMild.2 mph49%30.12 "HgN/A
7:20 PM75 °FPassing clouds.5 mph36%30.12 "HgN/A
6:20 PM79 °FPleasantly warm.7 mph28%30.12 "HgN/A
5:20 PM79 °FPassing clouds.10 mph26%30.12 "HgN/A
4:20 PM79 °FPassing clouds.9 mph28%30.12 "HgN/A
3:20 PM79 °FPassing clouds.10 mph30%30.15 "HgN/A
2:20 PM77 °FPleasantly warm.9 mph34%30.18 "HgN/A
1:20 PM75 °FMild.7 mph36%30.21 "HgN/A
12:20 PM73 °FMild.9 mph38%30.21 "HgN/A
11:20 AM72 °FMild.10 mph44%30.24 "HgN/A
10:20 AM68 °FMild.8 mph49%30.24 "HgN/A
9:20 AM63 °FMild.5 mph64%30.24 "HgN/A
8:20 AM54 °FCool.3 mph82%30.27 "HgN/A
7:20 AM46 °FCool.1 mph93%30.27 "HgN/A
6:20 AM43 °FFog.2 mph100%30.24 "HgN/A
5:20 AM45 °FFog.1 mph93%30.27 "HgN/A
Weather by CustomWeather, © 2016

See weather overviewHow to use our weather pages